Theta_e
321 321 321 320 319 318 318 318 319 319 318 317 316 316 316 316 316 316 317 323 327 327 327 329 330 329 329 329 332 346 350 354 354 351 346 344 344 343 343 348 346 347 350 347 348
322 322 322 322 321 320 319 318 318 319 319 318 316 316 316 316 316 317 319 321 327 327 327 327 330 329 329 332 336 343 343 348 348 347 347 345 343 344 343 344 347 346 348 347 348
322 322 322 322 322 322 321 319 318 319 319 318 317 316 316 316 324 326 319 324 327 325 326 327 327 329 330 332 339 344 341 340 337 341 347 345 342 343 345 346 345 349 347 348 348
323 323 323 322 322 322 321 319 318 318 319 319 317 316 316 316 327 326 323 322 326 326 326 328 329 331 330 330 335 336 338 336 336 336 347 345 344 345 344 345 346 350 348 348 348
323 323 323 323 322 322 322 319 318 318 319 319 317 316 316 319 325 327 326 323 322 326 327 327 331 331 330 332 332 335 336 335 335 335 342 345 347 344 342 345 346 350 350 348 348
323 323 323 323 323 322 322 319 318 318 320 319 317 316 316 324 326 328 326 320 322 326 328 330 330 329 329 330 331 333 334 334 334 335 346 348 346 340 340 345 347 350 350 348 348
323 323 323 323 323 322 322 320 319 318 320 319 317 316 316 323 325 326 326 325 323 326 329 330 329 329 331 329 332 332 332 333 334 335 335 339 342 346 341 345 347 347 349 348 348
322 323 323 323 323 323 322 320 318 318 320 318 316 316 316 328 326 324 326 327 325 326 329 330 328 329 330 330 330 330 330 333 334 337 336 332 331 341 340 346 347 347 347 348 347
322 322 322 323 323 323 323 320 316 320 318 317 317 326 324 328 325 323 325 327 325 327 327 328 328 328 329 326 326 329 331 333 337 338 336 332 331 340 341 345 345 343 339 346 348
322 322 322 322 323 323 322 319 318 320 320 318 320 326 326 327 324 324 326 326 327 326 326 327 327 323 320 321 326 328 330 333 339 339 336 333 331 332 341 346 342 340 344 341 347
323 323 322 322 323 323 323 320 328 327 323 324 324 326 326 326 323 325 325 325 326 326 323 325 322 321 322 321 324 328 329 330 330 330 332 331 330 330 341 346 347 342 343 343 347
323 323 323 322 323 326 322 320 326 325 324 325 326 328 330 329 324 325 326 327 325 323 323 321 321 322 323 323 323 323 325 327 328 329 329 328 326 326 331 336 346 346 345 348 348
322 323 323 322 323 327 327 326 325 325 324 326 327 328 328 326 324 324 326 327 324 323 322 320 321 323 324 324 324 323 324 326 328 327 325 325 323 325 326 329 340 346 346 347 349
322 321 323 322 324 329 329 327 327 327 321 325 330 331 329 328 325 325 326 325 323 322 321 319 322 322 322 323 322 324 324 325 326 323 322 324 323 323 324 326 329 344 345 348 348
320 319 322 323 322 325 328 327 327 327 332 331 332 331 329 327 326 325 325 326 323 323 324 323 325 324 326 326 323 323 323 325 324 322 321 323 321 322 325 326 330 339 346 348 348
319 319 321 322 323 325 326 326 327 324 331 332 330 328 325 326 327 327 325 326 326 324 323 322 325 326 325 327 327 327 325 319 317 318 319 320 322 323 324 329 331 334 344 347 349
318 320 321 322 324 326 326 327 325 329 329 332 331 326 326 327 328 324 324 323 323 324 323 324 325 326 327 327 325 326 318 320 320 321 321 320 322 323 326 331 331 331 335 344 348
320 321 322 323 323 325 326 322 331 331 333 331 331 328 328 326 326 326 326 324 323 322 321 325 327 329 327 326 325 326 320 319 324 321 322 322 328 332 331 333 332 335 333 335 347
321 322 324 325 324 326 327 324 328 331 331 331 330 329 327 327 327 325 325 325 325 322 324 324 329 330 328 328 326 327 325 320 322 319 321 323 330 333 334 331 333 334 336 335 348
323 325 328 328 324 326 323 325 327 330 329 330 330 330 333 330 326 325 325 330 328 325 325 327 329 328 330 328 328 328 325 324 318 326 328 326 331 333 334 335 333 334 341 341 349
326 330 331 328 324 327 323 324 328 330 330 330 329 331 332 332 330 329 332 331 332 331 329 328 327 330 329 330 332 329 331 327 324 321 324 323 328 333 336 337 338 337 339 339 343
324 328 329 325 325 323 322 325 329 329 330 329 328 328 332 331 332 332 333 332 333 332 334 329 325 331 333 329 330 330 334 332 332 335 329 326 332 343 342 337 335 335 339 340 341
324 330 327 326 322 321 324 327 329 328 329 328 329 328 329 330 333 332 332 331 332 330 330 329 327 328 328 327 327 329 328 327 327 325 331 333 334 341 339 339 336 335 340 340 339
325 329 329 326 326 325 325 327 330 330 329 329 328 328 329 329 327 330 332 331 330 331 330 329 324 326 329 330 327 328 331 333 327 330 329 341 346 344 340 338 336 332 335 338 336
329 328 326 326 327 324 325 327 331 329 329 329 328 328 329 327 327 328 327 326 329 326 327 325 327 328 327 327 325 331 331 337 338 338 339 341 341 344 338 337 335 332 335 339 339
323 324 325 326 328 326 325 327 330 329 328 327 326 325 323 323 324 325 323 325 327 322 324 320 324 324 321 324 324 331 330 332 336 337 335 335 334 335 335 335 335 334 337 336 338
318 321 325 328 326 323 322 327 326 328 328 325 324 322 321 321 321 321 321 322 323 321 320 322 320 320 323 322 324 325 329 329 334 333 334 334 333 331 335 334 336 335 334 335 334
Wind_Speed
13 13 13 13 13 13 13 12 12 11 11 11 11 11 11 11 9 12 15 11 11 8 8 9 9 9 13 20 17 11 3 4 5 3 13 20 6 6 6 12 2 2 12 33 33
14 14 15 14 13 13 13 12 12 11 10 10 10 10 10 11 11 13 9 13 13 8 9 11 14 18 12 6 11 10 5 10 9 12 12 28 8 11 6 8 5 10 24 36 37
16 16 16 15 14 14 13 12 11 10 9 9 9 9 9 10 8 5 5 14 12 9 10 12 15 16 7 6 12 11 5 5 6 18 24 11 10 12 17 3 15 24 31 39 39
17 17 17 17 16 15 14 12 10 9 8 8 7 7 7 6 1 5 6 9 9 9 10 10 8 14 6 6 7 5 8 5 4 4 16 15 16 6 12 8 26 34 32 40 43
18 18 18 18 17 16 14 12 9 8 7 7 7 6 6 4 3 2 5 6 11 10 11 9 11 10 3 10 17 6 2 2 7 10 12 21 11 5 10 17 28 32 31 42 42
19 19 19 19 18 17 14 12 9 7 6 6 6 6 4 3 2 2 10 8 13 11 10 9 7 24 17 9 6 14 8 6 9 16 17 12 6 9 13 18 29 34 32 39 41
19 20 20 19 19 17 14 11 8 5 5 5 6 6 8 4 3 1 6 4 12 10 11 6 11 17 14 10 13 19 7 8 9 13 6 16 3 6 21 26 25 21 29 31 39
20 20 20 20 19 17 14 10 6 4 4 5 4 6 6 1 8 7 4 2 6 8 8 4 9 16 6 14 10 4 5 3 8 9 8 6 7 7 33 31 28 34 34 33 39
21 20 20 20 19 17 13 9 4 4 4 3 3 5 6 5 10 6 9 8 6 7 5 7 8 8 10 4 6 4 5 6 5 10 4 5 7 10 37 28 30 36 23 31 37
21 21 20 20 19 16 12 6 3 4 4 4 7 7 5 3 4 13 13 11 10 3 8 6 3 2 5 5 4 4 5 6 1 5 5 4 7 6 31 31 34 36 17 37 37
22 21 20 20 18 16 9 3 4 2 7 10 8 11 9 6 8 7 9 8 16 9 3 8 3 7 13 8 9 7 7 6 5 8 5 7 6 6 25 27 24 25 25 38 42
23 21 19 18 17 11 7 1 4 8 10 16 18 21 18 7 7 9 8 7 7 6 2 5 6 14 10 11 7 7 5 7 6 7 2 3 7 7 6 21 36 36 32 32 36
23 21 19 15 13 5 5 10 5 8 5 10 14 19 13 12 8 13 15 11 3 2 4 7 12 5 7 13 11 8 3 4 7 6 5 4 8 8 10 11 33 39 46 42 47
24 22 19 14 7 4 4 9 9 8 5 6 5 6 18 13 5 20 21 12 4 10 8 7 20 8 10 8 8 4 8 5 6 5 3 4 7 6 7 8 10 34 38 42 46
23 22 16 14 10 6 4 3 4 2 4 5 5 7 12 12 1 10 23 21 6 8 3 9 8 10 5 7 5 8 5 3 3 5 5 2 3 8 2 10 6 23 41 42 47
23 22 17 14 10 2 7 2 3 5 5 3 6 6 6 8 6 6 26 14 8 4 2 9 14 6 8 4 3 1 5 9 6 3 3 6 5 10 4 7 4 13 33 40 44
22 20 17 12 2 3 4 3 4 3 6 4 5 6 6 6 4 7 8 8 6 2 5 7 8 7 7 3 7 5 7 4 5 4 6 3 2 10 8 5 8 10 27 36 44
23 17 13 8 9 7 3 4 2 5 6 4 5 4 7 7 6 8 5 5 6 4 3 1 8 3 1 8 8 5 8 5 2 2 6 6 4 4 12 11 19 27 16 21 42
20 11 5 5 14 10 3 4 7 5 4 5 5 4 4 5 6 6 9 9 8 10 8 4 5 6 4 4 10 4 2 7 4 3 3 4 7 4 13 12 15 16 25 9 37
15 5 4 7 13 13 4 5 4 5 8 4 3 4 2 5 8 7 6 5 8 12 9 3 1 3 6 5 5 2 2 4 4 3 3 6 5 3 21 22 20 23 29 30 26
7 4 7 7 17 5 3 6 6 16 11 3 2 3 4 4 4 7 7 2 7 5 11 1 3 7 6 6 4 7 6 5 5 4 1 3 2 12 12 14 15 23 33 36 6
4 2 14 18 3 1 2 5 6 5 10 4 5 6 2 6 7 8 5 4 4 3 4 3 5 1 4 6 5 7 2 3 4 4 1 4 1 12 13 18 23 25 31 33 33
9 5 20 13 2 2 6 8 10 6 2 4 6 4 4 4 4 6 6 11 16 5 2 3 3 3 11 6 8 7 6 3 1 4 1 2 4 17 24 24 24 25 30 30 26
4 3 3 17 13 2 4 7 6 2 5 5 4 5 6 9 9 5 8 10 23 13 15 6 5 6 5 4 5 6 13 11 6 4 1 6 8 18 21 20 31 34 31 28 30
4 2 5 3 5 8 4 5 6 5 10 17 8 9 3 5 5 5 8 7 9 18 11 5 3 2 2 2 6 6 8 14 12 3 6 3 11 8 12 14 22 27 31 29 29
5 6 8 6 14 6 5 8 6 5 6 4 8 9 11 6 3 2 4 3 1 9 5 5 0 3 8 6 7 5 13 8 10 5 9 5 6 9 10 17 25 28 27 25 21
9 2 4 8 9 4 5 4 5 4 12 9 9 5 8 4 9 11 13 12 9 4 2 2 3 3 2 5 4 5 7 7 4 5 1 4 3 6 3 8 12 21 20 20 24
Wind_Direction
3 358 350 341 334 327 321 319 316 314 312 309 308 308 305 299 285 269 244 209 218 242 275 286 278 298 305 279 245 181 92 187 232 143 169 230 262 118 97 127 193 200 157 154 164
7 0 354 347 339 332 324 318 314 312 310 307 308 309 310 311 299 264 224 210 209 223 263 293 307 324 320 226 185 173 186 203 222 154 179 190 217 145 129 165 96 116 137 158 162
10 3 358 351 344 335 328 320 312 308 307 305 308 309 316 323 330 16 201 197 208 219 258 283 303 324 283 261 180 186 208 194 329 123 154 165 133 163 156 117 141 147 149 160 172
8 4 358 353 347 338 331 325 315 309 305 303 305 310 316 322 161 47 65 192 210 224 253 279 307 328 312 316 344 149 187 158 274 262 163 160 155 166 218 157 154 153 163 166 177
3 0 357 353 348 343 336 328 318 310 303 304 304 311 321 295 279 77 333 211 201 222 239 276 305 313 263 316 349 72 170 4 306 311 174 151 190 210 156 152 161 163 165 177 186
357 356 354 352 348 344 337 330 320 306 300 300 296 302 300 279 30 93 353 197 191 211 227 248 300 318 281 337 3 328 304 290 286 292 162 158 188 158 176 157 162 172 175 186 191
352 352 350 349 347 344 337 330 319 303 295 293 290 291 274 214 56 345 5 77 178 198 220 267 321 317 333 332 337 326 328 318 276 267 193 133 72 234 175 162 158 185 195 192 200
348 347 347 346 345 342 336 329 315 291 288 286 287 292 257 251 190 221 231 147 186 210 230 351 335 320 320 315 328 317 330 318 280 213 214 131 268 172 167 158 165 179 176 191 200
344 343 342 342 342 340 335 327 311 292 289 261 249 292 265 205 215 216 208 199 156 192 231 312 302 316 316 41 347 356 264 246 286 198 168 140 252 161 169 168 178 188 180 193 197
340 339 338 338 339 338 331 325 318 291 288 257 249 304 238 237 197 170 180 210 208 199 268 265 285 352 346 68 266 282 342 308 210 231 200 191 239 145 170 175 192 197 211 197 198
337 336 334 334 336 335 328 290 344 301 283 248 284 261 326 151 142 176 181 205 209 212 189 253 88 237 249 218 245 294 285 277 281 298 194 221 247 257 173 186 200 216 210 191 200
335 333 331 331 333 339 349 306 29 335 297 283 269 267 257 269 171 198 207 192 156 195 188 357 249 241 240 269 265 279 243 315 294 279 145 240 277 261 226 193 200 201 202 200 198
333 330 327 327 328 345 39 48 34 319 306 286 237 239 228 193 200 202 201 210 177 225 212 186 244 218 211 263 267 274 260 279 266 326 330 343 315 294 278 237 200 196 195 195 193
331 328 326 326 322 334 59 34 8 329 43 278 201 234 224 221 267 216 201 185 204 216 230 225 259 250 266 229 192 244 263 225 318 47 281 80 295 291 282 291 183 189 192 190 192
328 324 321 312 298 271 309 358 359 290 7 155 179 179 189 185 105 199 203 204 212 251 58 259 306 313 312 264 135 226 248 321 333 338 19 329 61 265 72 294 267 181 188 190 193
325 320 311 299 288 258 219 251 335 47 269 213 155 151 130 214 250 349 182 205 232 231 272 255 271 221 215 272 209 174 24 19 34 67 358 252 142 290 259 219 219 184 190 191 194
324 313 298 274 198 158 166 296 52 138 307 192 183 161 154 191 239 152 169 209 181 98 279 326 272 260 184 268 348 76 55 350 357 7 227 81 97 243 282 310 191 196 199 193 198
328 307 285 253 201 182 189 62 128 254 256 300 150 129 179 179 236 182 164 216 258 123 42 212 325 347 184 181 192 202 146 155 238 247 275 335 278 296 334 27 29 34 11 212 196
331 311 276 199 189 187 148 85 208 226 247 341 72 104 281 251 181 161 204 215 218 165 176 170 278 321 168 156 137 266 182 192 153 161 35 277 295 359 18 34 20 31 20 323 197
341 332 186 151 167 168 86 227 249 259 310 38 74 165 189 253 170 162 160 237 242 193 153 215 356 348 329 31 23 135 229 17 12 343 318 299 307 23 17 11 4 8 22 4 206
356 359 148 165 155 149 156 234 271 284 279 88 315 20 295 20 193 174 199 286 48 52 108 202 96 299 44 14 348 11 3 44 109 117 166 324 329 39 26 36 6 13 3 10 253
356 17 160 151 102 195 192 218 305 330 356 343 39 33 32 34 9 40 63 67 68 2 62 318 128 62 153 136 72 66 39 60 106 279 185 160 251 13 19 27 17 9 8 12 29
340 303 182 182 126 277 282 280 261 263 82 41 24 27 5 51 49 15 63 47 57 64 65 325 23 32 344 1 15 34 3 26 336 51 332 152 311 356 6 12 5 12 16 23 22
5 16 196 212 240 235 300 279 291 102 72 82 17 26 42 42 14 23 21 32 43 40 30 76 59 119 154 221 245 9 48 49 87 69 356 12 352 2 359 356 353 354 9 29 32
26 347 25 286 280 260 163 264 31 21 59 28 35 40 43 61 34 34 359 355 24 23 21 84 92 120 167 56 73 68 37 64 65 302 95 42 43 17 357 342 345 353 12 12 18
26 5 339 292 312 346 354 11 60 21 48 15 83 63 55 83 108 305 22 24 315 342 35 348 282 110 355 351 51 72 30 74 87 65 79 80 53 1 2 9 8 5 16 17 359
11 17 319 325 332 63 325 41 21 82 36 74 92 87 44 346 320 292 278 265 249 201 251 72 116 88 298 337 36 32 1 16 102 26 202 62 254 305 337 349 359 9 359 17 359